Location: Unspecified
(0.0000°N, 0.0000°E)
Time: 06:29:42
(UTC+00:00)

Vanguard 2 - Visible Passes

Search period start: 19 December 2014 00:00
Search period end: 29 December 2014 00:00
Orbit: 553 x 2946 km, 32.9° (Epoch: 18 December)

Date Brightness Start Highest point End Pass type
(mag) Time Alt. Az. Time Alt. Az. Time Alt. Az.
19 Dec 9.4 18:49:36 10° SW 19:03:31 63° SSE 19:09:38 22° ENE visible
19 Dec 9.9 21:04:07 10° WSW 21:11:10 32° WNW 21:11:10 32° WNW visible
20 Dec 9.1 19:08:57 10° SW 19:22:55 85° SE 19:27:52 31° ENE visible
20 Dec 10.5 21:25:01 10° W 21:29:24 20° WNW 21:29:24 20° WNW visible
21 Dec 9.2 19:28:36 10° WSW 19:42:06 70° NW 19:46:07 37° NE visible
21 Dec 11.0 21:47:00 10° WNW 21:47:38 11° WNW 21:47:38 11° WNW visible
22 Dec 9.4 19:48:39 10° WSW 20:01:08 49° NW 20:04:21 36° N visible
23 Dec 9.7 04:42:17 10° N 04:45:34 17° NE 04:49:43 10° E visible
23 Dec 9.8 20:09:12 10° W 20:20:05 34° NW 20:22:36 30° NNW visible
24 Dec 9.3 05:00:07 10° NNW 05:04:27 29° NE 05:10:41 10° E visible
24 Dec 9.7 18:13:00 10° WSW 18:29:09 82° NW 18:39:04 10° NE visible
24 Dec 10.2 20:30:25 10° W 20:39:06 23° NW 20:40:50 22° NNW visible
25 Dec 8.5 05:18:32 10° NW 05:23:20 50° NE 05:30:51 10° ESE visible
25 Dec 9.9 18:32:50 10° WSW 18:48:19 62° NW 18:57:33 12° NE visible
25 Dec 10.6 20:52:39 10° WNW 20:58:17 15° NW 20:59:05 15° NNW visible
26 Dec 10.2 18:53:07 10° WSW 19:07:24 46° NW 19:15:47 14° NNE visible
27 Dec 9.3 03:53:16 18° NE 03:53:16 18° NE 03:56:47 10° E visible
27 Dec 10.4 19:13:55 10° W 19:26:30 33° NW 19:34:00 14° NNE visible
28 Dec 8.3 04:11:33 32° NNE 04:12:10 33° NE 04:17:17 10° ESE visible
28 Dec 10.5 19:35:25 10° W 19:45:43 24° NW 19:52:12 13° N visible
